sat.trackr.live / text

‹ back to catalog

FIREFLY-3

NORAD 62710 · 2025-009DF

PAYLOAD ACTIVE UNKNOWN

§ Identity

Operator
Country
IND
Launch date
2025-01-14
Launch site
AFWTR
Launch vehicle
Mass (kg)
RCS (m²)

External: N2YO · Heavens-Above · Gunter

§ Orbital elements

Epoch: 2026-09-22T20:23:46.626144Z

Period
96.47 min
Inclination
97.6988°
Eccentricity
0.0002892
Mean motion
14.92743533 rev/d
Perigee alt
587.4 km
Apogee alt
591.4 km
Semi-major
6,967.5 km
B*
5.7080e-5
RAAN
341.9348°
Arg perigee
176.9154°
Mean anomaly
183.2084°
Rev number
9,190

§ Raw data

FIREFLY-31 62710U 25009DF  26265.84984521  .00000534  00000+0  57080-4 0  99992 62710  97.6988 341.9348 0002892 176.9154 183.2084 14.92743533 91907

JSON: /api/v1/satellites/62710 · /tle

For live sub-satellite position, see the globe view (requires WebGL).

§ Visibility from observer

Set your observer location to see the next 7 days of passes ≥ 10°. The values pass through the URL so the page stays shareable.

No JS? Fill the form by hand. The geolocation button needs JavaScript.

§ Radio — SatNOGS DB

ModeDescriptionDownlinkUplink
FM Mode X - Transmitter 8.100 GHz
FM S-band telemetry 2.248 GHz
FM S-band telemetry 2.238 GHz
FM Mode S - Transmitter (inactive) 2.243 GHz

4 transmitters · refreshed weekly from db.satnogs.org